Weather History for Victoria, TX

Change the Weather History Date:

Saturday, November 16, 2013

  Actual Average Record
Temperature  
Mean Temperature 71 °F 63 °F  
Max Temperature 83 °F 74 °F 90 °F (1938)
Min Temperature 58 °F 52 °F 28 °F (1920)
Degree Days  
Heating Degree Days 0 5  
Month to date heating degree days 49 51  
Since 1 July heating degree days 53 74  
Cooling Degree Days 6 2  
Month to date cooling degree days 39 56  
Year to date cooling degree days 3361 3099  
Growing Degree Days 21 (Base 50)    
Moisture  
Dew Point 66 °F    
Average Humidity 85    
Maximum Humidity 100    
Minimum Humidity 69    
Precipitation  
Precipitation T in 0.11 in 0.96 in (2001)
Month to date precipitation 0.54 1.82  
Year to date precipitation 23.86 37.49  
Snow  
Snow 0.00 in - - ()
Month to date snowfall 0.0  
Since 1 July snowfall 0.0  
Since 1 September snowfall 0.0  
Snow Depth 0.00 in    
Sea Level Pressure  
Sea Level Pressure 29.87 in    
Wind  
Wind Speed 9 mph (SE)    
Max Wind Speed 22 mph    
Max Gust Speed 26 mph    
Visibility 5 miles    
Events Fog , Rain    
T = Trace of Precipitation, MM = Missing Value Source: NWS Daily Summary

Daily Weather History Graph

Daily Weather History Graph

Search for Another Location

Airport:

Trip Planner

Search our weather history database for the weather conditions in past years. The results will help you decide how hot, cold, wet, or windy it might be!

Date:

Astronomy

Nov. 16, 2013 Rise Set
Actual Time 6:51 AM CST 5:33 PM CST
Civil Twilight 6:26 AM CST 5:58 PM CST
Nautical Twilight 5:58 AM CST 6:26 PM CST
Astronomical Twilight 5:29 AM CST 6:54 PM CST
Moon 5:06 PM CST (11/16) 5:53 AM CST (11/16)
Length of Visible Light 11h 31m
Length of Day
10h 41m
Waxing Gibbous, 99% of the Moon is Illuminated
Nov 16
Waxing Gibbous
Nov 17
Full
Nov 25
Last Quarter
Dec 2
New
Dec 9
First Quarter

Hourly Weather History & Observations

Time (CST) Temp. Heat Index Dew Point Humidity Pressure Visibility Wind Dir Wind Speed Gust Speed Precip Events Conditions
12:51 AM 63.0 °F - 61.0 °F 93% 29.92 in 7.0 mi SE 3.5 mph - N/A   Clear
1:31 AM 62.6 °F - 60.8 °F 94% 29.92 in 1.8 mi Calm Calm - N/A   Clear
1:40 AM 62.6 °F - 60.8 °F 94% 29.91 in 3.0 mi Calm Calm - N/A   Clear
1:51 AM 62.1 °F - 60.1 °F 93% 29.91 in 4.0 mi Calm Calm - N/A   Clear
2:03 AM 62.6 °F - 60.8 °F 94% 29.91 in 1.5 mi ESE 3.5 mph - N/A   Clear
2:05 AM 60.8 °F - 60.8 °F 100% 29.91 in 1.0 mi ESE 3.5 mph - N/A   Mist
2:08 AM 60.8 °F - 59.0 °F 94% 29.91 in 0.5 mi Calm Calm - N/A Fog Fog
2:13 AM 60.8 °F - 59.0 °F 94% 29.91 in 0.2 mi Calm Calm - N/A Fog Fog
2:29 AM 60.8 °F - 59.0 °F 94% 29.90 in 0.2 mi East 3.5 mph - N/A Fog Fog
2:37 AM 60.8 °F - 57.2 °F 88% 29.90 in 0.2 mi East 4.6 mph - N/A Fog Fog
2:51 AM 59.0 °F - 57.9 °F 96% 29.90 in 0.2 mi ESE 3.5 mph - N/A Fog Fog
3:03 AM 59.0 °F - 57.2 °F 94% 29.90 in 0.5 mi East 3.5 mph - N/A Fog Fog
3:29 AM 59.0 °F - 57.2 °F 94% 29.90 in 0.2 mi East 3.5 mph - N/A Fog Fog
3:51 AM 60.1 °F - 59.0 °F 96% 29.89 in 0.2 mi ESE 4.6 mph - N/A Fog Fog
4:06 AM 59.0 °F - 57.2 °F 94% 29.89 in 0.5 mi SE 4.6 mph - N/A Fog Fog
4:10 AM 59.0 °F - 57.2 °F 94% 29.89 in 0.2 mi SE 4.6 mph - N/A Fog Fog
4:28 AM 60.8 °F - 59.0 °F 94% 29.89 in 1.0 mi Calm Calm - N/A   Mist
4:35 AM 59.0 °F - 57.2 °F 94% 29.88 in 0.2 mi Calm Calm - N/A Fog Fog
4:51 AM 59.0 °F - 57.0 °F 93% 29.88 in 0.2 mi Calm Calm - N/A Fog Fog
5:19 AM 59.0 °F - 57.2 °F 94% 29.89 in 0.5 mi NE 4.6 mph - N/A Fog Fog
5:27 AM 59.0 °F - 57.2 °F 94% 29.89 in 0.2 mi ENE 4.6 mph - N/A Fog Fog
5:37 AM 59.0 °F - 57.2 °F 94% 29.89 in 0.5 mi East 5.8 mph - N/A Fog Fog
5:51 AM 61.0 °F - 59.0 °F 93% 29.88 in 0.5 mi East 4.6 mph - N/A Fog Fog
6:00 AM 60.8 °F - 59.0 °F 94% 29.88 in 0.2 mi East 4.6 mph - N/A Fog Fog
6:07 AM 60.8 °F - 59.0 °F 94% 29.89 in 0.5 mi East 3.5 mph - N/A Fog Fog
6:31 AM 60.8 °F - 59.0 °F 94% 29.89 in 0.2 mi East 5.8 mph - N/A Fog Fog
6:51 AM 61.0 °F - 60.1 °F 97% 29.88 in 0.2 mi East 5.8 mph - N/A Fog Fog
7:35 AM 64.4 °F - 62.6 °F 94% 29.89 in 1.0 mi Calm Calm - N/A   Mostly Cloudy
7:40 AM 64.4 °F - 62.6 °F 94% 29.89 in 2.0 mi Calm Calm - N/A   Mostly Cloudy
7:47 AM 66.2 °F - 64.4 °F 94% 29.90 in 3.0 mi SE 3.5 mph - N/A   Scattered Clouds
7:51 AM 66.9 °F - 64.9 °F 93% 29.89 in 3.0 mi SE 4.6 mph - N/A   Partly Cloudy
8:51 AM 71.1 °F - 69.1 °F 93% 29.91 in 8.0 mi Calm Calm - N/A   Clear
9:18 AM 73.4 °F - 71.6 °F 94% 29.92 in 9.0 mi Calm Calm - N/A   Mostly Cloudy
9:26 AM 75.2 °F - 71.6 °F 89% 29.93 in 10.0 mi South 6.9 mph - N/A   Mostly Cloudy
9:49 AM 78.8 °F - 71.6 °F 78% 29.92 in 10.0 mi SSE 9.2 mph - N/A   Mostly Cloudy
9:51 AM 79.0 °F - 72.0 °F 79% 29.92 in 10.0 mi South 9.2 mph - N/A   Overcast
9:59 AM 78.8 °F - 71.6 °F 78% 29.92 in 10.0 mi South 10.4 mph - N/A   Overcast
10:51 AM 82.0 °F 86.7 °F 72.0 °F 71% 29.91 in 10.0 mi South 18.4 mph 23.0 mph N/A   Overcast
11:51 AM 82.0 °F 86.3 °F 71.1 °F 69% 29.88 in 10.0 mi South 16.1 mph 23.0 mph N/A   Overcast
12:36 PM 82.4 °F 87.2 °F 71.6 °F 70% 29.86 in 10.0 mi South 12.7 mph - N/A   Overcast
12:51 PM 82.9 °F 87.5 °F 71.1 °F 67% 29.85 in 10.0 mi South 16.1 mph - N/A   Overcast
1:51 PM 82.0 °F 86.7 °F 72.0 °F 71% 29.81 in 10.0 mi SSE 17.3 mph - N/A   Overcast
2:51 PM 80.1 °F 84.2 °F 73.0 °F 79% 29.80 in 10.0 mi SSE 15.0 mph 24.2 mph N/A   Overcast
3:11 PM 78.8 °F - 73.4 °F 83% 29.80 in 4.0 mi SSE 11.5 mph 25.3 mph 0.00 in Rain Light Rain
3:33 PM 78.8 °F - 73.4 °F 83% 29.80 in 10.0 mi South 12.7 mph 23.0 mph 0.00 in   Overcast
3:47 PM 78.8 °F - 73.4 °F 83% 29.81 in 9.0 mi South 17.3 mph - 0.00 in   Overcast
3:51 PM 78.1 °F - 73.0 °F 84% 29.81 in 9.0 mi South 15.0 mph - 0.00 in   Overcast
4:33 PM 78.8 °F - 71.6 °F 78% 29.80 in 10.0 mi South 13.8 mph - N/A   Overcast
4:51 PM 78.1 °F - 72.0 °F 81% 29.79 in 10.0 mi SSE 16.1 mph - N/A   Overcast
5:51 PM 77.0 °F - 72.0 °F 84% 29.80 in 10.0 mi SSE 12.7 mph - N/A   Mostly Cloudy
6:51 PM 75.9 °F - 72.0 °F 87% 29.81 in 10.0 mi SSE 9.2 mph - N/A   Partly Cloudy
7:51 PM 75.9 °F - 73.0 °F 91% 29.82 in 10.0 mi South 8.1 mph - N/A   Partly Cloudy
8:14 PM 75.2 °F - 73.4 °F 94% 29.82 in 10.0 mi South 9.2 mph - N/A   Mostly Cloudy
8:23 PM 75.2 °F - 73.4 °F 94% 29.82 in 10.0 mi SSE 9.2 mph - N/A   Scattered Clouds
8:51 PM 75.9 °F - 73.0 °F 91% 29.81 in 10.0 mi South 12.7 mph - N/A   Scattered Clouds
9:15 PM 75.2 °F - 73.4 °F 94% 29.83 in 8.0 mi South 10.4 mph - N/A   Mostly Cloudy
9:31 PM 75.2 °F - 73.4 °F 94% 29.84 in 7.0 mi South 8.1 mph - N/A   Overcast
9:51 PM 75.9 °F - 73.0 °F 91% 29.84 in 7.0 mi SSW 3.5 mph - N/A   Overcast
10:51 PM 77.0 °F - 73.9 °F 90% 29.82 in 10.0 mi SSE 17.3 mph - N/A   Overcast
11:06 PM 77.0 °F - 73.4 °F 89% 29.83 in 8.0 mi South 13.8 mph 19.6 mph N/A   Overcast
11:51 PM 77.0 °F - 73.9 °F 90% 29.82 in 9.0 mi South 12.7 mph - N/A   Overcast